Weather in Fraiburgo

Brazil     27°05′58″S   50°51′44″W
temp.,
°C
wind,
m/s
gust,
m/s
humid.,
%
clouds,
%
prec.,
mm/h
press.,
hPa
HPBL,
m
21 april, wed
wed2100:00+12ene211930 0.0 1020418
03:00+11e199920 0.0 1019293
06:00+10ene1110063 0.0 102026
09:00+15ene367996 0.0 1021716
12:00+16e2676100 0.0 10211000
15:00+16e2779100 0.1 1019693
18:00+14e14901 0.0 102071
21:00+11e139998 0.0 1021101
22 april, thu
thu2200:00+14e289291 0.0 1021554
03:00+13e299079 0.1 1019519
06:00+13e378397 0.0 1019686
09:00+15ene2472100 0.0 1021895
12:00+17ne2361100 0.0 10201237
15:00+18e1260100 0.0 1018718
18:00+14ese137994 0.1 101880
21:00+11ne11952 0.1 101913
23 april, fri
fri2300:00+9ene16995 0.0 1020130
03:00+8nne119913 0.0 101915
06:00+7ene11999 0.0 102014
09:00+14ene13693 0.0 1019371
12:00+22nw01425 0.0 10171496
15:00+23ssw12375 0.0 10132005
18:00+15e1376100 0.0 101443
21:00+12ne1188100 0.0 101619
24 april, sat
sat2400:00+11n118463 0.0 101716
03:00+10ne11976 0.0 101612
06:00+10nnw119587 0.0 101613
09:00+14nnw1278100 0.0 1016115
12:00+21wsw2449100 0.0 10141184
15:00+19w266298 0.0 1013704
18:00+16nw1480100 0.0 1014114
21:00+14nnw1188100 0.0 101618
25 april, sun
sun2500:00+13wnw119082 0.0 101626
03:00+13n009395 0.0 101519
06:00+12wnw10100100 1.6 101529
09:00+14e0198100 3.7 1015144
12:00+15w249744 1.4 1015453
15:00+14wsw259531 3.3 1014538
18:00+13n009441 0.0 101410
21:00+12wnw119883 0.0 101643